Location: Ferques
(50.8300°N, 1.7599°E)
Time: 20:34:32
(UTC+00:00)

Cosmos 2237 - Pass Details

Date: 19 May 2025
Orbit: 847 x 854 km, 70.8° (Epoch: 21 June)

Event Time Altitude Azimuth Distance (km) Brightness Sun altitude
Rises 22:49:20 0° 328° (NNW) 3,422 8.8 -18.0°
Reaches altitude 10° 22:51:48 10° 326° (NNW) 2,483 7.7 -18.1°
Maximum altitude 22:57:28 69° 244° (WSW) 906 4.3 -18.3°
Enters shadow 23:00:06 32° 170° (S) 1,407 4.8 -18.4°
